SCP
0 0 0 0 0 0 0 0 0 0 0 0 0 0 0 0 0 0 0 0 0 0 0 0 0 0 0 0 0 0 0 0 0 0 1 1 1 1 1 1 1 1 0 0
0 0 0 0 0 0 0 0 0 0 0 0 0 0 0 0 0 0 0 0 0 0 0 0 0 0 0 0 0 0 0 0 0 0 1 1 1 1 1 1 1 1 0 0
0 0 0 0 0 0 0 0 0 0 0 0 0 0 0 0 0 0 0 0 0 0 0 0 0 0 0 0 0 0 0 0 0 0 1 1 1 1 1 1 1 1 1 0
0 0 0 0 0 0 0 0 0 0 -0 0 0 0 0 0 0 0 0 0 0 0 0 0 0 0 0 0 0 0 0 0 0 0 0 1 1 1 1 1 1 1 0 0
0 0 0 0 0 0 0 0 0 0 0 -0 0 0 0 0 0 0 0 0 0 0 0 0 0 0 0 0 0 0 0 0 0 0 0 0 1 1 1 1 1 1 0 0
0 0 0 0 0 0 0 0 0 0 -0 -0 -0 0 0 0 0 0 0 0 0 0 0 0 0 0 0 0 0 0 0 0 0 0 0 0 0 1 1 1 1 0 0 0
0 0 0 0 0 0 0 0 0 0 -0 -0 -0 0 0 0 0 0 0 0 0 0 0 0 0 0 0 0 0 0 0 0 0 0 0 0 0 0 0 0 0 0 0 0
0 0 0 0 0 0 0 0 0 -0 -0 -0 -0 0 0 0 0 0 0 0 0 0 0 0 0 0 0 0 0 0 0 0 0 0 0 0 0 0 0 0 0 0 0 0
0 0 0 0 0 0 0 0 0 -0 -0 -0 0 0 0 0 0 0 0 0 0 0 0 0 0 0 0 0 0 0 0 0 0 0 0 0 0 0 0 0 0 0 0 0
0 0 0 0 0 0 0 0 0 -0 -0 0 0 0 0 0 0 0 0 0 0 0 0 0 0 0 0 0 0 0 0 0 0 0 0 0 0 0 0 0 0 0 0 0
0 0 0 0 0 0 0 0 0 0 0 0 0 0 0 0 0 0 0 0 0 0 0 0 0 0 0 0 0 0 0 0 0 0 0 0 0 0 0 0 0 0 0 0
0 0 0 0 0 0 0 0 0 0 0 0 0 0 0 0 0 0 0 0 0 0 0 0 0 0 0 0 0 0 0 0 0 0 0 0 0 0 0 0 0 0 0 0
0 0 0 0 0 0 0 0 0 0 0 0 0 0 0 0 0 0 0 0 0 0 0 0 0 0 0 0 0 0 0 0 0 0 0 0 0 0 0 0 0 0 0 0
0 0 0 0 0 0 0 0 0 0 0 0 0 0 0 0 0 0 0 0 0 0 0 0 0 0 0 0 0 0 0 0 0 0 0 0 0 0 0 0 0 0 0 0
0 0 0 0 0 0 0 0 0 0 0 0 0 0 0 0 0 0 0 0 0 0 0 0 0 0 0 0 0 0 0 0 0 0 0 0 0 0 0 0 0 0 0 0
0 0 0 0 0 0 0 0 0 0 0 0 0 0 0 0 0 0 0 0 0 0 0 0 0 0 0 0 0 0 0 0 0 0 0 0 0 0 0 0 0 0 0 0
0 0 0 0 0 0 0 0 0 0 0 0 0 0 0 0 0 0 0 0 0 0 0 0 0 0 0 0 0 0 0 0 0 0 0 0 0 0 0 0 0 0 0 0
0 0 0 0 0 0 0 0 0 0 0 0 0 0 0 0 0 0 0 0 0 0 0 0 0 0 0 0 0 0 0 0 0 0 0 0 0 0 0 0 0 0 0 0
0 0 0 0 0 0 0 0 0 0 0 0 0 0 0 0 0 0 0 0 0 0 0 0 0 0 0 0 0 0 0 0 0 0 0 0 0 0 0 0 0 0 0 0
0 0 0 0 0 0 0 0 0 0 0 0 0 0 0 0 0 0 0 0 0 0 0 0 0 0 0 0 0 0 0 0 0 0 0 0 0 0 0 0 0 0 0 0
0 0 0 0 0 0 0 0 0 0 0 0 0 0 0 0 0 0 0 0 0 0 0 0 0 0 0 0 0 0 0 0 0 0 0 0 0 0 0 0 0 0 0 0
0 0 0 0 0 0 0 0 0 0 0 0 0 0 0 0 0 0 0 0 0 0 0 0 0 0 0 0 0 0 0 0 0 0 0 0 0 0 0 0 0 0 0 0
0 0 0 0 0 0 0 0 0 0 0 0 0 0 0 0 0 0 0 0 0 0 0 0 0 0 0 0 0 0 0 0 0 0 0 0 0 0 0 0 0 0 0 0
0 0 0 0 0 0 0 0 0 0 0 0 0 0 0 0 0 0 0 0 0 0 0 0 0 0 0 0 0 0 0 0 0 0 0 0 0 0 0 0 0 0 0 0
0 0 0 0 0 0 0 0 0 0 0 0 0 0 0 0 0 0 0 0 0 0 0 0 0 0 0 0 0 0 0 0 0 0 0 0 0 0 0 0 0 0 0 0
0 0 0 0 0 0 0 0 0 0 0 0 0 0 0 0 0 0 0 0 0 0 0 0 0 0 0 0 0 0 0 0 0 0 0 0 0 0 0 0 0 0 0 0
Wind_Speed
5 7 5 4 4 3 3 4 3 2 3 8 11 12 12 13 15 15 14 13 13 13 12 12 13 13 12 11 10 9 10 9 6 3 1 3 4 4 5 5 5 5 5 6
8 7 4 6 7 7 7 5 4 3 3 6 11 12 10 14 14 13 13 14 14 14 15 15 14 14 13 11 10 9 8 8 7 4 3 2 2 2 2 3 4 5 5 5
8 3 6 10 10 8 5 3 2 3 4 4 7 7 10 9 12 14 14 12 13 14 14 15 14 12 12 12 11 9 9 9 8 7 3 1 1 1 2 2 3 4 5 5
7 5 9 9 7 5 3 4 3 2 2 1 2 3 6 9 12 16 16 15 15 14 14 14 14 13 12 11 10 9 8 8 8 6 3 1 2 4 4 4 3 3 4 4
5 5 8 7 5 5 4 7 4 2 3 3 6 5 4 7 12 15 15 15 15 14 14 14 13 11 11 10 10 9 9 9 8 7 4 2 2 2 2 3 5 4 3 4
5 3 5 3 4 5 5 5 6 6 6 5 5 4 5 7 11 14 14 14 14 13 14 13 11 11 10 10 9 9 9 9 9 7 6 3 1 2 4 5 5 4 3 2
5 7 5 5 6 8 9 7 7 9 7 3 3 5 3 6 9 10 12 13 13 12 12 12 12 12 11 11 10 9 9 9 9 8 7 6 3 2 2 3 3 3 2 2
4 5 6 6 4 3 5 6 5 2 0 1 4 4 2 6 8 8 9 10 11 12 12 11 11 10 10 10 10 9 8 8 8 8 7 7 5 3 2 3 2 2 2 2
5 3 2 6 6 4 4 4 2 5 2 3 3 2 3 7 10 10 12 12 12 12 12 12 11 9 9 9 9 9 9 8 8 8 7 6 6 5 4 4 3 2 1 1
5 5 3 4 7 8 4 2 5 5 3 2 2 3 5 9 11 12 12 11 11 11 11 12 10 10 9 8 8 8 8 8 7 7 7 6 6 6 5 4 4 2 1 1
4 6 4 5 6 6 6 5 5 5 4 3 1 2 3 6 8 9 10 10 9 9 9 9 9 9 9 9 8 8 8 8 8 8 7 7 7 7 6 5 4 3 2 2
3 7 3 2 2 2 3 3 3 4 2 3 3 3 5 6 7 7 8 8 8 8 8 7 7 8 8 8 8 8 8 8 7 7 7 7 7 7 7 6 5 5 4 3
4 7 4 3 6 6 4 4 4 6 4 3 2 3 4 4 6 6 6 7 7 7 7 6 6 6 6 7 7 7 8 7 7 7 7 7 8 8 8 7 7 6 5 5
6 5 5 4 4 1 2 4 4 5 4 2 2 2 5 5 5 6 5 5 5 6 6 6 6 6 6 5 5 6 7 7 7 7 8 9 8 8 8 8 8 7 6 6
6 5 3 3 3 3 3 3 4 4 4 5 4 3 4 4 4 4 4 4 5 6 6 7 6 6 5 5 6 6 6 6 7 7 8 8 8 8 8 8 8 8 7 7
5 5 3 1 2 3 2 2 3 3 3 3 3 2 4 2 1 2 3 4 4 5 6 7 7 6 5 5 4 5 5 5 6 7 7 7 7 8 8 8 8 8 7 7
3 5 4 2 2 1 1 4 4 3 3 5 4 4 3 1 1 1 1 3 4 5 5 6 6 5 4 3 3 4 4 4 6 6 6 6 6 7 7 7 7 7 6 6
5 4 4 3 2 2 6 3 4 4 3 5 4 3 4 3 2 1 1 1 2 4 5 5 5 4 3 2 3 3 4 4 5 5 5 6 6 6 6 6 7 6 5 5
4 5 4 4 2 2 4 3 5 4 3 4 5 3 3 4 3 3 2 1 1 2 3 3 3 2 2 2 1 3 4 4 4 5 5 5 5 6 6 7 6 5 5 5
4 5 5 3 2 4 7 5 4 4 2 4 6 5 5 4 2 4 4 2 2 3 3 3 3 3 2 2 1 3 2 3 3 3 3 3 4 5 6 6 5 5 4 5
1 2 2 3 3 6 4 5 6 4 8 5 7 7 6 5 5 5 3 1 1 2 3 3 4 3 2 2 1 2 1 1 1 2 3 4 4 4 5 5 5 5 5 6
7 4 4 4 3 7 5 8 8 9 4 6 7 6 6 4 3 1 1 0 1 2 4 4 4 4 3 2 1 0 2 1 1 3 4 4 5 5 5 6 6 6 6 6
6 8 7 8 8 6 7 8 7 6 7 6 7 6 6 4 2 2 1 0 2 2 3 3 3 4 4 3 1 1 2 0 4 4 3 3 4 5 5 5 6 5 5 5
3 4 4 2 5 3 5 4 5 6 7 7 7 6 6 5 3 2 1 1 2 3 3 3 3 4 4 4 3 3 1 2 5 4 3 2 3 4 5 4 4 4 5 5
6 4 3 3 3 2 3 5 7 6 7 7 6 6 6 6 4 3 1 1 1 2 3 3 3 4 5 4 3 2 1 4 4 4 3 2 2 3 3 3 3 3 3 3
5 8 8 8 9 8 9 9 8 9 9 9 8 6 5 5 4 3 2 1 1 1 2 3 4 4 4 3 2 2 1 3 4 3 3 2 2 2 2 2 2 4 4 6
Wind_Direction
47 58 57 52 70 100 85 73 49 50 58 73 82 68 47 35 39 32 25 19 16 11 7 10 10 8 8 9 7 4 357 348 344 329 268 213 200 190 187 184 179 177 170 168
52 41 53 68 48 52 56 58 19 349 47 91 92 71 50 40 36 29 21 12 5 2 3 3 4 3 0 359 357 357 351 342 334 317 287 238 200 178 178 171 163 167 166 165
94 25 46 52 37 29 36 59 355 316 18 79 109 60 25 19 23 23 19 11 6 3 357 354 354 354 353 353 351 349 342 337 329 322 313 321 103 118 141 163 172 177 166 164
65 15 46 48 26 15 329 313 303 292 51 313 83 101 12 352 6 11 7 4 0 355 352 349 348 348 348 345 343 343 340 337 333 331 332 302 218 202 192 176 167 162 158 152
71 43 48 37 0 2 297 299 303 280 133 58 24 93 4 351 1 357 355 354 352 349 346 344 344 343 343 343 343 341 341 343 340 339 331 307 248 213 168 151 152 155 151 148
59 53 52 1 343 355 338 5 30 45 69 55 352 76 20 360 343 340 343 344 346 344 340 340 343 344 345 345 345 345 346 347 348 350 350 341 286 165 154 163 164 162 148 145
34 14 9 7 9 359 25 48 32 22 32 38 5 72 30 338 337 333 333 337 342 344 340 343 347 349 351 349 349 347 349 350 354 1 4 2 13 92 129 142 154 145 142 145
87 12 6 14 24 357 16 83 111 115 90 9 17 54 316 332 335 333 334 338 345 347 345 346 348 349 349 350 349 352 353 353 360 7 9 15 24 49 69 85 106 122 136 155
120 102 56 40 25 51 26 20 136 132 81 76 38 23 325 340 345 345 347 348 348 349 350 349 350 352 349 349 351 355 1 3 5 7 11 21 23 36 54 66 77 93 111 143
123 113 29 13 20 19 59 63 58 71 88 78 39 12 328 325 331 335 339 341 342 346 348 353 353 354 354 355 357 1 7 8 6 10 18 27 26 32 40 49 46 46 53 80
86 106 15 26 29 355 9 29 64 78 99 120 78 314 261 278 300 314 323 327 331 336 336 344 347 351 357 1 4 8 7 12 15 15 18 25 26 28 35 38 30 26 29 57
60 100 70 21 317 9 53 45 101 111 77 93 122 278 270 267 285 297 308 317 324 326 328 335 338 345 355 1 6 12 14 18 15 13 19 23 23 26 30 26 22 23 29 33
82 97 89 354 341 359 25 11 80 109 99 93 108 287 299 285 296 299 302 311 317 321 329 336 338 340 347 354 3 10 13 17 16 16 19 24 23 23 23 20 20 23 28 32
97 82 133 159 207 226 45 32 67 97 104 119 168 250 302 300 305 315 318 318 324 332 339 343 345 347 349 356 5 12 13 15 21 23 26 29 25 23 22 23 25 26 34 38
89 91 111 145 157 127 109 92 80 93 141 147 184 205 257 274 289 307 320 335 350 353 354 351 352 354 358 9 13 18 17 16 20 29 32 28 24 26 28 28 29 32 37 40
90 119 118 130 171 126 96 122 117 111 124 135 156 231 244 247 294 353 356 1 358 351 352 351 356 4 7 13 17 23 21 17 25 34 31 26 28 31 29 25 27 33 33 34
94 122 121 191 202 93 279 217 182 166 167 162 186 222 216 156 107 43 11 14 356 347 344 346 348 354 4 13 30 36 23 23 32 34 28 24 27 29 24 25 29 28 26 33
118 114 122 125 121 241 253 230 166 162 193 187 187 198 186 171 173 198 187 65 354 344 343 342 342 349 357 18 33 42 35 33 36 33 27 24 26 26 19 22 23 20 19 28
116 126 112 118 164 270 289 213 169 163 218 195 171 173 157 135 59 346 306 274 300 325 327 324 332 339 8 27 46 58 38 32 37 33 28 25 28 27 23 21 14 12 24 32
67 89 106 122 157 234 241 205 154 113 245 220 159 152 146 123 87 277 283 300 332 341 332 335 346 4 7 358 69 67 38 33 34 32 32 32 36 36 28 20 17 17 30 36
30 53 119 167 217 258 244 147 115 159 229 193 157 152 146 160 196 233 269 311 331 333 332 342 355 352 307 294 104 66 13 358 14 57 49 40 36 41 34 28 25 27 33 38
173 170 196 164 203 256 191 142 176 211 180 151 150 152 150 170 191 169 120 94 331 333 331 341 349 335 312 293 147 132 295 286 105 87 67 50 39 40 40 39 31 28 31 37
183 185 183 184 211 233 179 186 197 159 150 154 153 156 148 147 142 128 138 253 310 322 324 331 340 336 326 310 248 242 279 155 120 109 94 69 56 45 40 43 37 30 27 34
258 153 136 211 259 209 191 175 158 158 154 157 154 151 145 147 146 136 158 277 313 320 323 334 348 347 331 313 291 263 285 118 123 126 126 104 81 59 45 41 40 42 33 32
222 164 156 224 241 184 228 192 170 157 144 145 148 150 153 151 154 157 180 265 299 313 318 334 342 329 319 315 309 308 116 118 124 134 141 128 111 98 72 55 41 40 27 23
200 173 174 213 203 180 209 200 170 154 159 160 157 160 164 163 168 160 185 247 266 292 319 337 338 331 322 327 317 331 91 130 136 141 152 154 144 131 115 98 50 26 32 33